User: anonymous   Login
Location: Ladysmith
(45.4630°N, 91.1040°W)
Time: 10:19:04
(UTC-05:00)
Language:

SO-67 - Orbit

View from above orbital plane
View from above orbital plane
View from above satellite
View from above satellite

Ground track
Ground track

The orbit data is extracted from the following two-line orbital elements,

1 35870U 09049F   17086.81443493 +.00005347 +00000-0 +88912-4 0  9994
2 35870 097.1084 104.3022 0003476 052.9374 068.3617 15.52478424420599
Epoch (UTC): 27 March 2017 19:32:47
Eccentricity: 0.0003476
inclination: 97.1084°
perigee height: 407 km
apogee height: 412 km
right ascension of ascending node: 104.3022°
argument of perigee: 52.9374°
revolutions per day: 15.52478424
mean anomaly at epoch: 68.3617°
orbit number at epoch: 42059

The dashed part of the orbit path shows where the satellite is in the earth's shadow,  

DLR